[[{"header":{"parameterUnit":"m.s-1","parameterCategory":1,"la1":30.2991,"la2":30.254,"lo1":-89.0895,"lo2":-89.0444,"dy":0.0017,"dx":0.0017,"nx":28,"ny":28,"refTime":"2025-03-21T09:00:00:Z","depth":0,"parameterNumber":2,"parameterNumberName":"U-component_of_WINDS"},"data":[0,0,0,0,0,0,0,0,0,0,0,0,0,0,0,0,0,0,0,0,0,0,0,0,0,0,0,0,0,0,0,0,0,0,0,0,0,0,0,0,0,0,0,0,0,0,0,0,0,0,0,0,0,0,0,0,0,0,1.8588,1.8589,0,1.8663,1.8664,1.8665,1.864,1.8638,1.8636,1.8635,1.8713,1.8717,1.872,0,0,0,0,0,0,0,0,0,0,0,0,0,1.842,1.8423,1.8588,1.8589,1.859,1.8663,1.8664,1.8665,1.864,1.8638,1.8636,1.8634,1.8712,1.8716,1.8721,0,0,0,0,0,0,0,0,0,0,0,0,0,1.8494,1.8424,1.8588,1.8586,1.8586,1.8663,1.8664,1.8666,1.864,1.8638,1.8635,1.8633,1.8711,1.8716,1.8721,1.8805,0,0,1.8738,1.874,0,0,0,0,0,0,0,0,1.849,1.85,1.8585,1.8586,1.8587,1.8639,1.8634,1.8712,1.8641,1.862,1.8635,1.8632,1.8691,1.8698,1.8717,1.8808,1.8812,1.8738,1.8742,1.8744,1.8746,0,0,0,0,0,0,0,1.8485,1.8497,1.8618,1.8586,1.8587,1.8581,1.8588,1.8649,1.8668,1.8621,1.862,1.8629,1.8691,1.8712,1.8719,1.8813,1.8738,1.8743,1.8747,1.8749,1.8972,1.8974,0,0,0,0,0,0,1.8479,1.8493,1.8615,1.862,1.8531,1.8586,1.8594,1.8625,1.8668,1.8672,1.8631,1.8628,1.8704,1.8713,1.8722,1.8819,1.8744,1.8749,1.8752,1.8969,1.8972,1.8975,0,0,0,0,0,0,1.8476,1.849,1.8612,1.8556,1.8571,1.8591,1.8626,1.8628,1.8649,1.8675,1.8678,1.8649,1.8702,1.8714,1.8783,1.8821,1.8752,1.8757,1.8966,1.897,1.8974,1.9016,0,0,0,0,0,0,1.8471,1.8489,1.8522,1.8557,1.8574,1.8673,1.8628,1.8631,1.8659,1.8655,1.8693,1.8697,1.8701,1.8775,1.8789,1.8828,1.8761,1.8963,1.8968,1.8973,1.9011,1.9021,1.9029,0,0,0,0,0,1.8465,1.8532,1.8523,1.8538,1.8615,1.8675,1.8685,1.8689,1.8662,1.8694,1.871,1.8696,1.8815,1.8782,1.8797,1.8839,1.896,1.8966,1.8972,1.9007,1.9019,1.9029,0,0,0,0,0,0,1.8502,1.8537,1.8528,1.8608,1.8639,1.8671,1.8712,1.8702,1.8741,1.8736,1.8739,1.8748,1.8818,1.8836,1.8798,1.892,1.8884,1.8893,1.8905,1.8917,1.8926,1.8919,1.8765,0,0,0,0,0,1.8519,1.8566,1.8593,1.8661,1.8677,1.8692,1.8718,1.8718,1.875,1.8763,1.8784,1.8816,1.8861,1.889,1.8933,1.9014,1.9021,1.905,1.9059,1.9066,1.9073,1.9114,1.9127,1.8995,1.8995,1.8995,0,0,1.8556,1.858,1.861,1.8669,1.8693,1.874,1.8703,1.8755,1.8789,1.8771,1.8837,1.8853,1.8889,1.8964,1.8998,1.898,1.9111,1.9074,1.9079,1.9083,1.9122,1.9134,1.9145,1.8999,1.8998,1.8998,0,0,1.8646,1.867,1.8727,1.8751,1.8787,1.8796,1.881,1.8843,1.8853,1.8919,1.8905,1.8946,1.9023,1.9048,1.9071,1.9166,1.9154,1.918,1.9227,1.9267,1.9277,1.9286,1.9318,1.9329,1.9188,1.9188,1.9188,0,1.8687,1.8757,1.8759,1.881,1.8836,1.882,1.8877,1.8901,1.8949,1.8967,1.8947,1.9041,1.9064,1.9142,1.9165,1.9185,1.92,1.9176,1.9276,1.9285,1.9293,1.9323,1.9335,1.9191,1.9191,1.919,1.919,0,1.8803,1.8852,1.8894,1.8939,1.8969,1.9024,1.9033,1.9063,1.906,1.907,1.9136,1.9163,1.9209,1.9228,1.9226,1.9305,1.9293,1.9274,1.9238,1.9309,1.9336,1.9348,1.9195,1.9194,1.9193,1.9193,0,0,1.892,1.8963,1.8978,1.8997,1.9034,1.9071,1.9124,1.9168,1.9192,1.9226,1.9269,1.9333,1.9315,1.9341,1.9341,1.9376,1.9446,1.9353,1.9354,1.9367,1.9532,1.9544,1.9557,1.9439,1.9441,1.9443,1.9528,0,1.901,1.9102,1.9104,1.9188,1.9231,1.9216,1.9261,1.9288,1.9299,1.9337,1.9349,1.9393,1.9368,1.9382,1.9417,1.9431,1.9479,1.9425,1.9477,1.9479,1.9466,1.9573,1.9586,1.9666,1.9539,1.9541,1.9543,0,1.9129,1.9164,1.9251,1.9279,1.9297,1.9338,1.9376,1.9413,1.9443,1.9448,1.9475,1.9469,1.9522,1.9484,1.9555,1.9518,1.9539,1.9549,1.9552,1.9556,1.9514,1.9577,1.9691,1.9702,1.956,1.9559,1.9558,0,1.9201,1.927,1.9331,1.9348,1.9382,1.941,1.9426,1.9453,1.9478,1.9512,1.9528,1.9568,1.959,1.962,1.9625,1.9598,1.9695,1.9659,1.9699,1.9699,1.9719,1.9718,1.9837,1.9737,1.9737,1.9737,1.9736,0,1.9301,1.9355,1.9363,1.94,1.9459,1.946,1.9518,1.9531,1.9555,1.9593,1.9583,1.9619,1.9624,1.9662,1.9666,1.9722,1.9733,1.9737,1.9737,1.9737,1.9736,1.975,1.9744,1.974,1.9739,1.9738,1.9738,0,1.9391,1.94,1.9464,1.949,1.9498,1.954,1.9562,1.9596,1.9605,1.9654,1.9665,1.9679,1.9722,1.973,1.9781,1.9784,1.985,1.9846,1.984,1.9838,1.9877,1.9873,2.0008,2.0024,1.9916,1.9917,1.9918,0,1.9454,1.9494,1.9524,1.9548,1.9565,1.9605,1.9629,1.9632,1.9658,1.9692,1.9722,1.9764,1.9797,1.9866,1.9881,1.9919,1.9914,1.9959,1.992,1.9917,1.9912,1.9908,1.9911,1.9966,1.9967,1.9968,1.9969,0,1.9562,1.9563,1.9599,1.9636,1.9665,1.9694,1.9722,1.9742,1.9748,1.9777,1.982,1.9846,1.9897,1.9937,1.9975,1.999,1.998,1.9981,1.9992,1.9991,1.9984,1.9986,1.9857,1.9978,1.9977,1.9976,1.9976,1.9975,1.9639,1.9673,1.9698,1.9737,1.9757,1.9783,1.9815,1.9827,1.9863,1.9903,1.9902,1.9949,1.9974,2.0024,2.0041,2.0077,2.0063,2.008,2.0083,2.0087,2.0089,1.998,2.0084,2.0084,2.0084,2.0084,2.0084,0,1.9744,1.9759,1.9795,1.9833,1.9863,1.985,1.9879,1.9905,1.9945,1.997,2.0002,2.005,2.0089,2.0105,2.0143,2.0168,2.0164,2.0178,2.0175,2.0178,2.0101,2.0087,2.018,2.018,2.018,2.018,2.018,2.018,1.9803,1.9858,1.9862,1.9926,1.9941,1.9985,2.0002,2.0025,2.0044,2.0097,2.0128,2.0139,2.0159,2.0198,2.0232,2.0236,2.0249,2.0265,2.0266,2.0194,2.0184,2.0174,2.0161,2.0268,2.0268,2.034,2.034,2.0341]},{"header":{"parameterUnit":"m.s-1","parameterCategory":1,"la1":30.2991,"la2":30.254,"lo1":-89.0895,"lo2":-89.0444,"dy":0.0017,"dx":0.0017,"nx":28,"ny":28,"refTime":"2025-03-21T09:00:00:Z","depth":0,"parameterNumber":3,"parameterNumberName":"V-component_of_WINDS"},"data":[0,0,0,0,0,0,0,0,0,0,0,0,0,0,0,0,0,0,0,0,0,0,0,0,0,0,0,0,0,0,0,0,0,0,0,0,0,0,0,0,0,0,0,0,0,0,0,0,0,0,0,0,0,0,0,0,0,0,5.1268,5.1269,0,5.1321,5.1322,5.1323,5.1257,5.1255,5.1252,5.125,5.1301,5.1305,5.1309,0,0,0,0,0,0,0,0,0,0,0,0,0,5.1104,5.1108,5.1268,5.1269,5.1269,5.1321,5.1322,5.1323,5.1258,5.1255,5.1252,5.1249,5.13,5.1305,5.1309,0,0,0,0,0,0,0,0,0,0,0,0,0,5.1168,5.1109,5.1268,5.1243,5.1241,5.1321,5.1322,5.1323,5.1258,5.1255,5.1251,5.1248,5.1299,5.1304,5.1309,5.1415,0,0,5.1326,5.1328,0,0,0,0,0,0,0,0,5.1165,5.1174,5.1246,5.1245,5.1243,5.1279,5.1283,5.1354,5.1259,5.1252,5.125,5.1246,5.1297,5.1302,5.132,5.1417,5.142,5.1326,5.133,5.1332,5.1334,0,0,0,0,0,0,0,5.116,5.1172,5.1289,5.1247,5.1246,5.1228,5.1233,5.1296,5.1294,5.1252,5.1248,5.1255,5.1295,5.1315,5.1321,5.142,5.1326,5.1331,5.1334,5.1337,5.1603,5.1606,0,0,0,0,0,0,5.1159,5.1168,5.1287,5.1291,5.1194,5.1234,5.1239,5.1271,5.1293,5.1293,5.1258,5.1252,5.1307,5.1314,5.1322,5.1444,5.1332,5.1337,5.134,5.1599,5.1603,5.1608,0,0,0,0,0,0,5.1156,5.1171,5.1285,5.1228,5.1241,5.124,5.1277,5.1274,5.1294,5.1297,5.1296,5.1279,5.1305,5.1315,5.1392,5.1445,5.134,5.1344,5.1594,5.16,5.1605,5.169,0,0,0,0,0,0,5.1152,5.117,5.1211,5.123,5.1245,5.1356,5.128,5.1278,5.1304,5.1296,5.1316,5.1316,5.1303,5.1384,5.1397,5.145,5.1349,5.1589,5.1597,5.1604,5.1683,5.1698,5.1711,0,0,0,0,0,5.1146,5.1233,5.1214,5.1229,5.1297,5.1359,5.1367,5.1351,5.1308,5.1348,5.135,5.1316,5.1438,5.1392,5.1407,5.1462,5.1586,5.1595,5.1603,5.1676,5.1695,5.1711,0,0,0,0,0,0,5.1221,5.1235,5.1214,5.131,5.1334,5.1348,5.1398,5.1372,5.1407,5.1399,5.1375,5.1381,5.1462,5.147,5.142,5.1563,5.1504,5.1516,5.1555,5.1573,5.1587,5.1582,5.1353,0,0,0,0,0,5.1249,5.1299,5.1309,5.1392,5.1405,5.14,5.1427,5.1412,5.1435,5.1444,5.1452,5.1474,5.1517,5.1546,5.1586,5.1684,5.1685,5.1729,5.1744,5.1755,5.1765,5.1814,5.1832,5.1636,5.1636,5.1636,0,0,5.1306,5.1321,5.1354,5.1408,5.1424,5.1475,5.1409,5.1466,5.1502,5.1452,5.1525,5.1531,5.1555,5.1642,5.1681,5.1651,5.182,5.1766,5.1776,5.1779,5.1824,5.1843,5.1859,5.1642,5.1641,5.164,0,0,5.1436,5.1454,5.1524,5.1541,5.1567,5.1563,5.158,5.1597,5.16,5.1672,5.1635,5.1677,5.1753,5.177,5.1788,5.1923,5.1891,5.1936,5.2011,5.2058,5.2074,5.2087,5.2132,5.2148,5.1947,5.1947,5.1947,0,5.1504,5.1581,5.1563,5.1622,5.1645,5.1603,5.1671,5.1689,5.1726,5.1742,5.1709,5.1801,5.1814,5.1903,5.1935,5.1953,5.1969,5.1933,5.2073,5.2087,5.2099,5.2141,5.2158,5.1952,5.1951,5.1951,5.195,0,5.1661,5.1714,5.1767,5.1804,5.1833,5.1897,5.1887,5.1919,5.1901,5.1899,5.1972,5.1986,5.2026,5.2047,5.203,5.2132,5.2113,5.2077,5.2017,5.2123,5.2162,5.2178,5.1959,5.1957,5.1956,5.1955,0,0,5.1839,5.1864,5.1884,5.1898,5.1923,5.1963,5.2023,5.2063,5.2089,5.2116,5.2164,5.2228,5.2194,5.2216,5.22,5.2243,5.2344,5.2201,5.2201,5.2224,5.2453,5.2477,5.2496,5.2324,5.2327,5.2329,5.245,0,5.1967,5.2072,5.2057,5.2158,5.2204,5.2164,5.2216,5.2235,5.2235,5.2273,5.2272,5.2317,5.2271,5.2283,5.2323,5.2323,5.2389,5.2315,5.2365,5.2367,5.2358,5.2517,5.2544,5.2657,5.2465,5.2468,5.247,0,5.213,5.2162,5.2267,5.2281,5.23,5.2348,5.2381,5.242,5.244,5.2436,5.2459,5.2436,5.2493,5.2434,5.2511,5.2461,5.2481,5.2484,5.2488,5.249,5.2423,5.252,5.2693,5.2709,5.2494,5.2492,5.249,0,5.2245,5.2315,5.2386,5.24,5.242,5.2453,5.2462,5.2479,5.2503,5.2532,5.2547,5.2583,5.2602,5.2629,5.2615,5.2573,5.2693,5.2634,5.269,5.269,5.2715,5.2713,5.289,5.2733,5.2733,5.2732,5.2732,0,5.2387,5.2452,5.2437,5.2481,5.2551,5.2532,5.2602,5.2607,5.2621,5.2663,5.2631,5.2671,5.2651,5.2688,5.2678,5.2741,5.2751,5.2748,5.2744,5.2749,5.2749,5.276,5.275,5.2737,5.2736,5.2735,5.2734,0,5.2527,5.252,5.2594,5.2606,5.261,5.2661,5.267,5.271,5.2707,5.276,5.2771,5.2766,5.2808,5.2797,5.2844,5.2836,5.2916,5.2903,5.2909,5.2905,5.296,5.2953,5.3147,5.317,5.3002,5.3003,5.3005,0,5.2616,5.2665,5.2682,5.2708,5.2719,5.2762,5.2786,5.2769,5.2794,5.282,5.2855,5.2895,5.2925,5.2994,5.2994,5.3028,5.3014,5.308,5.3019,5.3022,5.3011,5.3007,5.301,5.3091,5.3093,5.3095,5.3096,0,5.2775,5.2769,5.2805,5.2839,5.2869,5.2895,5.2918,5.2941,5.2925,5.2955,5.2998,5.3022,5.3068,5.3107,5.3138,5.3146,5.3117,5.3115,5.3129,5.3134,5.3134,5.3131,5.2938,5.311,5.3109,5.3108,5.3107,5.3106,5.289,5.293,5.2947,5.2988,5.3003,5.3025,5.3061,5.3063,5.3098,5.3135,5.3123,5.3171,5.3187,5.3226,5.3237,5.3273,5.3248,5.327,5.3274,5.3279,5.3284,5.3131,5.3279,5.3279,5.3279,5.3278,5.3278,0,5.3044,5.3052,5.309,5.3123,5.3154,5.3126,5.3149,5.3177,5.322,5.3238,5.3268,5.3315,5.3352,5.3354,5.3388,5.3416,5.3404,5.3426,5.3422,5.3423,5.3307,5.329,5.3435,5.3435,5.3435,5.3435,5.3435,5.3435,5.3127,5.3192,5.3188,5.3259,5.3267,5.3314,5.3329,5.3348,5.3362,5.3417,5.3447,5.3449,5.3459,5.3493,5.3525,5.3524,5.3537,5.3563,5.3557,5.3448,5.3432,5.3417,5.34,5.3566,5.3567,5.367,5.3671,5.3671]}]]